Regional Weather Roundup
Issued by NWS Portland, ME

Home | Current Version | Previous Version | Text Only | Print | Product List | Glossary On
Versions: 1 2 3 4 5 6 7 8 9 10 11 12 13 14 15 16 17 18 19 20 21 22 23 24 25 26 27 28 29 30 31 32 33 34 35 36 37 38 39 40 41 42 43 44 45 46 47 48 49 50
000
ASUS41 KGYX 171910
RWRGYX
WEATHER ROUNDUP FOR MAINE AND NEW HAMPSHIRE
NATIONAL WEATHER SERVICE GRAY ME
200 PM EST FRI NOV 17 2017

MEZ002-005-006-010-012-015-018-020-021-024-026-027-029-172000-
MAINE

CITY           SKY/WX    TMP DP  RH WIND       PRES   REMARKS
PORTLAND       MOSUNNY   40  23  50 NW10G21   29.81R
SANFORD        SUNNY     39  23  52 W15G23    29.82S
BAR HARBOR     CLOUDY    37  26  64 NW17G25   29.69R
WISCASSET      SUNNY     39  23  52 MISG      29.79R
ROCKLAND       MOSUNNY   39  24  55 NW18G28   29.72R
FRYEBURG       SUNNY     36  22  56 W10G20    29.82R
LEWISTONAUBURN MOSUNNY   36  22  56 NW18G24   29.80R
AUGUSTA        MOSUNNY   36  21  54 NW22G35   29.77R
WATERVILLE     MOSUNNY   36  22  56 NW17G24   29.72R
BANGOR         CLOUDY    35  24  64 NW20G29   29.72R
GREENVILLE       N/A     24  20  84 NW24G47   29.66F WCI   8
MILLINOCKET    CLOUDY    32  25  75 W15G35    29.68R
HOULTON        CLOUDY    33  30  88 NW18G37   29.57R
PRESQUE ISLE   CLOUDY    31  26  82 NW18G38   29.60R WCI  19
FRENCHVILLE    CLOUDY    26  22  84 NW21G38   29.58R WCI  12
CARIBOU        CLOUDY    30  24  78 NW20G35   29.56R WCI  17
$$

NHZ002-005-008-009-011-012-014-172000-
NEW HAMPSHIRE

CITY           SKY/WX    TMP DP  RH WIND       PRES   REMARKS
PORTSMOUTH     MOSUNNY   39  21  48 NW16G25   29.84R
ROCHESTER      SUNNY     37  23  56 NW20G28   29.82S
NASHUA         MOSUNNY   41  22  46 NW14G26   29.90S
MANCHESTER     MOSUNNY   38  20  48 NW22G30   29.89S
CONCORD        MOSUNNY   36  22  56 NW18G30   29.90S
LACONIA        PTSUNNY   33  22  63 W10G18    29.88S
PLYMOUTH       CLOUDY    32  23  69 NW14G22   29.90F
BERLIN         CLOUDY    27  21  78 W12G21    29.86S WCI  17
WHITEFIELD     CLOUDY    28  20  71 W12       29.92R WCI  18
JAFFREY        SUNNY     38  21  50 VRB7G16   29.90S
KEENE          SUNNY     40  20  44 NW7       29.94S
LEBANON        MOSUNNY   37  21  52 N8        29.95S
MT WASHINGTON  BLWGSNOW   7   7 100 NW81G91     N/A  VSB 1/8 WCI -26
$$

VTZ005-007-008-172000-
VERMONT

CITY           SKY/WX    TMP DP  RH WIND       PRES   REMARKS
ST JOHNSBURY     N/A     28  20  71 MISG      29.95R
MONTPELIER     PTSUNNY   26  20  77 NW23G30   29.99S WCI  11
BURLINGTON     PTSUNNY   34  19  54 N13       30.05R
$$

MAZ007-012-024-CTZ003-RIZ002-NYZ038-NYZ072-172000-
SOUTHERN NEW ENGLAND AND NY

CITY           SKY/WX    TMP DP  RH WIND       PRES   REMARKS
BOSTON         MOSUNNY   43  23  45 NW18G26   29.88R
WORCESTER      SUNNY     40  16  37 NW22G30   29.89R
NANTUCKET      SUNNY     45  29  53 NW16G26   29.85S
PROVIDENCE     MOSUNNY   47  25  42 NW17G24   29.91R
HARTFORD       MOSUNNY   43  20  39 W16G25    29.99R
ALBANY         MOSUNNY   39  19  44 W21G30    30.06S
NEW YORK CITY  MOSUNNY   48  21  34 NW17G26   30.05S
$$

ANZ081-ANZ082-ANZ150-NHZ014-MEZ023>029-172000-
COASTAL MARINE OBSERVATIONS

STATION/POSITION TIME  TEMP    WIND        PRES    WAVE
                       AIR SEA DIR/SP/G            HT/PER
                 (UTC) (F)     (DEG/KT/KT) (MB)    (FT/S)
MOUNT DESERT ROC 1900   39     290/ 33/ 37 1004.6R
MATINICUS ROCK   1800   40     300/ 31/ 35 1004.8R
ISLE OF SHOALS   1800   37     290/ 27/ 32 1009.4R
JEFFREYS LEDGE   1836      53                N/A     8/ 6
GEORGES BANK BUO 1750   48 54              1004.4   13/ 9
$$

.............KEY..............
   WCI - WIND CHILL
   TC  - TEMPERATURE IN CELSIUS
   VSB - VISIBILITY IN MILES
   HX  - HEAT INDEX
   FAIR- INDICATES FEW OR NO CLOUDS BELOW 12,000 FT, WITH NO
         SIGNIFICANT WEATHER AND/OR OBSTRUCTIONS TO VISIBILITY.






USA.gov is the U.S. government's official web portal to all federal, state and local government web resources and services.